Location: The Saddle
(36.8333°N, 80.3417°W)
Time: 12:31:03
(UTC-05:00)

A-11 Canister half - Pass Details

Date: 14 December 2023
Orbit: 1526 x 1682 km, 47.3° (Epoch: 22 February)

Event Time Altitude Azimuth Distance (km) Brightness Sun altitude
Rises 15:40:33 0° 219° (SW) 4,850 13.5 13.0°
Reaches altitude 10° 15:43:41 10° 216° (SW) 3,883 13.3 12.6°
Maximum altitude 15:53:28 63° 138° (SE) 1,839 9.6 11.1°
Drops below altitude 10° 16:03:26 10° 61° (ENE) 3,946 10.6 9.5°
Sets 16:06:38 0° 58° (ENE) 4,933 11.0 9.0°
